Weather History for KMZH - June, 2013

Change the Weather History Date:

Wednesday, June 12, 2013

  Actual Average Record
Temperature  
Mean Temperature 62 °F -  
Max Temperature 78 °F 74 °F 90 °F (1956)
Min Temperature 46 °F 46 °F 31 °F (1962)
Degree Days  
Heating Degree Days 3    
Growing Degree Days 12 (Base 50)    
Moisture  
Dew Point 41 °F    
Average Humidity 48    
Maximum Humidity 87    
Minimum Humidity 21    
Precipitation  
Precipitation 0.00 in - - ()
Sea Level Pressure  
Sea Level Pressure 29.86 in    
Wind  
Wind Speed 3 mph (North)    
Max Wind Speed 16 mph    
Max Gust Speed 21 mph    
Visibility 10 miles    
Events      
Averages and records for this station are not official NWS values.
T = Trace of Precipitation, MM = Missing Value Source: NWS Daily Summary

Daily Weather History Graph

Daily Weather History Graph

Search for Another Location

Airport or City:

Trip Planner

Search our weather history database for the weather conditions in past years. The results will help you decide how hot, cold, wet, or windy it might be!

Date:

Astronomy

Jun. 12, 2013 Rise Set
Actual Time 5:18 AM CDT 9:04 PM CDT
Civil Twilight 4:39 AM CDT 9:43 PM CDT
Nautical Twilight 3:46 AM CDT 10:35 PM CDT
Astronomical Twilight 2:32 AM CDT 11:50 PM CDT
Moon 9:08 AM CDT (6/12) 11:27 PM CDT (6/12)
Length of Visible Light 17h 03m
Length of Day
15h 46m
Waxing Crescent, 14% of the Moon is Illuminated
Jun 12
Waxing Crescent
Jun 16
First Quarter
Jun 23
Full
Jun 29
Last Quarter
Jul 8
New

Hourly Weather History & Observations

Time (CDT) Temp. Dew Point Humidity Pressure Visibility Wind Dir Wind Speed Gust Speed Precip Events Conditions
12:13 AM 55.4 °F 41.0 °F 58% 29.89 in 10.0 mi Calm Calm - N/A   Clear
12:33 AM 51.8 °F 42.8 °F 71% 29.88 in 10.0 mi Calm Calm - N/A   Clear
12:53 AM 51.8 °F 42.8 °F 71% 29.87 in 10.0 mi NE 3.5 mph - N/A   Clear
1:13 AM 50.0 °F 42.8 °F 76% 29.88 in 10.0 mi Calm Calm - N/A   Clear
1:33 AM 50.0 °F 42.8 °F 76% 29.87 in 10.0 mi Calm Calm - N/A   Clear
1:53 AM 50.0 °F 44.6 °F 82% 29.87 in 10.0 mi NE 3.5 mph - N/A   Clear
2:13 AM 50.0 °F 42.8 °F 76% 29.90 in 10.0 mi SW 4.6 mph - N/A   Clear
2:33 AM 50.0 °F 44.6 °F 82% 29.89 in 10.0 mi Calm Calm - N/A   Clear
2:53 AM 48.2 °F 42.8 °F 82% 29.89 in 10.0 mi Calm Calm - N/A   Clear
3:13 AM 48.2 °F 42.8 °F 82% 29.88 in 10.0 mi Calm Calm - N/A   Clear
3:33 AM 48.2 °F 42.8 °F 82% 29.87 in 10.0 mi NNE 4.6 mph - N/A   Clear
3:53 AM 50.0 °F 44.6 °F 82% 29.86 in 10.0 mi NE 4.6 mph - N/A   Clear
4:13 AM 50.0 °F 42.8 °F 76% 29.86 in 10.0 mi ENE 3.5 mph - N/A   Clear
4:35 AM 46.4 °F 41.0 °F 81% 29.86 in 10.0 mi Calm Calm - N/A   Clear
4:53 AM 46.4 °F 41.0 °F 81% 29.86 in 10.0 mi Calm Calm - N/A   Clear
5:13 AM 46.4 °F 41.0 °F 81% 29.87 in 10.0 mi Calm Calm - N/A   Clear
5:33 AM 46.4 °F 42.8 °F 87% 29.87 in 10.0 mi Calm Calm - N/A   Clear
5:53 AM 48.2 °F 42.8 °F 82% 29.86 in 10.0 mi Calm Calm - N/A   Clear
6:13 AM 50.0 °F 44.6 °F 82% 29.86 in 10.0 mi NE 3.5 mph - N/A   Clear
6:33 AM 53.6 °F 44.6 °F 72% 29.87 in 10.0 mi Calm Calm - N/A   Clear
6:53 AM 53.6 °F 44.6 °F 72% 29.87 in 10.0 mi Calm Calm - N/A   Clear
7:13 AM 55.4 °F 44.6 °F 67% 29.87 in 10.0 mi Calm Calm - N/A   Clear
7:33 AM 59.0 °F 44.6 °F 59% 29.87 in 10.0 mi NNE 4.6 mph - N/A   Clear
7:53 AM 60.8 °F 44.6 °F 55% 29.87 in 10.0 mi NE 5.8 mph - N/A   Clear
8:13 AM 60.8 °F 44.6 °F 55% 29.86 in 10.0 mi Calm Calm - N/A   Clear
8:33 AM 62.6 °F 44.6 °F 52% 29.86 in 10.0 mi Calm Calm - N/A   Clear
8:53 AM 66.2 °F 46.4 °F 49% 29.86 in 10.0 mi Calm Calm - N/A   Clear
9:13 AM 68.0 °F 46.4 °F 46% 29.87 in 10.0 mi Calm Calm - N/A   Clear
9:33 AM 68.0 °F 48.2 °F 49% 29.88 in 10.0 mi Calm Calm - N/A   Clear
9:53 AM 68.0 °F 50.0 °F 52% 29.89 in 10.0 mi Calm Calm - N/A   Scattered Clouds
10:13 AM 69.8 °F 50.0 °F 49% 29.87 in 10.0 mi Calm Calm - N/A   Scattered Clouds
10:33 AM 69.8 °F 50.0 °F 49% 29.86 in 10.0 mi NE 4.6 mph - N/A   Clear
10:53 AM 71.6 °F 50.0 °F 46% 29.85 in 10.0 mi ENE 3.5 mph - N/A   Clear
11:13 AM 71.6 °F 48.2 °F 43% 29.85 in 10.0 mi Calm Calm - N/A   Clear
11:34 AM 73.4 °F 48.2 °F 41% 29.86 in 10.0 mi Calm Calm - N/A   Clear
11:53 AM 73.4 °F 44.6 °F 36% 29.85 in 10.0 mi Calm Calm - N/A   Clear
12:13 PM 77.0 °F 42.8 °F 29% 29.85 in 10.0 mi NNE 3.5 mph - N/A   Clear
12:33 PM 75.2 °F 35.6 °F 24% 29.84 in 10.0 mi Calm Calm - N/A   Clear
12:53 PM 77.0 °F 35.6 °F 22% 29.84 in 10.0 mi Calm Calm - N/A   Clear
1:13 PM 78.8 °F 35.6 °F 21% 29.83 in 10.0 mi Calm Calm - N/A   Clear
1:33 PM 78.8 °F 35.6 °F 21% 29.83 in 10.0 mi NE 6.9 mph - N/A   Clear
1:53 PM 78.8 °F 35.6 °F 21% 29.83 in 10.0 mi NNW 4.6 mph - N/A   Clear
2:13 PM 77.0 °F 35.6 °F 22% 29.82 in 10.0 mi NNE 3.5 mph - N/A   Clear
2:33 PM 78.8 °F 35.6 °F 21% 29.82 in 10.0 mi North 9.2 mph - N/A   Clear
2:53 PM 78.8 °F 35.6 °F 21% 29.82 in 10.0 mi North 8.1 mph - N/A   Clear
3:13 PM 77.0 °F 35.6 °F 22% 29.82 in 10.0 mi North 10.4 mph - N/A   Clear
3:33 PM 77.0 °F 37.4 °F 24% 29.81 in 10.0 mi NNW 10.4 mph 17.3 mph N/A   Clear
3:53 PM 75.2 °F 37.4 °F 25% 29.81 in 10.0 mi North 10.4 mph - N/A   Clear
4:13 PM 75.2 °F 39.2 °F 27% 29.81 in 10.0 mi NNW 10.4 mph - N/A   Clear
4:33 PM 75.2 °F 41.0 °F 29% 29.81 in 10.0 mi North 6.9 mph - N/A   Clear
4:53 PM 75.2 °F 41.0 °F 29% 29.81 in 10.0 mi North 9.2 mph - N/A   Clear
5:13 PM 75.2 °F 39.2 °F 27% 29.81 in 10.0 mi North 9.2 mph 17.3 mph N/A   Clear
5:33 PM 77.0 °F 37.4 °F 24% 29.81 in 10.0 mi North 9.2 mph 16.1 mph N/A   Clear
5:53 PM 75.2 °F 35.6 °F 24% 29.81 in 10.0 mi North 16.1 mph 19.6 mph N/A   Clear
6:13 PM 73.4 °F 37.4 °F 27% 29.82 in 10.0 mi North 13.8 mph 19.6 mph N/A   Clear
6:33 PM 73.4 °F 37.4 °F 27% 29.83 in 10.0 mi North 8.1 mph 18.4 mph N/A   Clear
6:53 PM 73.4 °F 35.6 °F 25% 29.83 in 10.0 mi North 11.5 mph 18.4 mph N/A   Clear
7:13 PM 71.6 °F 37.4 °F 29% 29.84 in 10.0 mi North 12.7 mph 20.7 mph N/A   Clear
7:33 PM 71.6 °F 37.4 °F 29% 29.85 in 10.0 mi North 6.9 mph - N/A   Clear
7:53 PM 71.6 °F 35.6 °F 27% 29.86 in 10.0 mi North 12.7 mph 20.7 mph N/A   Clear
8:13 PM 69.8 °F 35.6 °F 28% 29.87 in 10.0 mi North 15.0 mph 20.7 mph N/A   Clear
8:33 PM 69.8 °F 35.6 °F 28% 29.88 in 10.0 mi North 11.5 mph 20.7 mph N/A   Clear
8:53 PM 68.0 °F 35.6 °F 30% 29.89 in 10.0 mi North 8.1 mph - N/A   Scattered Clouds
9:13 PM 64.4 °F 35.6 °F 34% 29.89 in 10.0 mi North 6.9 mph - N/A   Clear
9:33 PM 64.4 °F 37.4 °F 37% 29.90 in 10.0 mi North 6.9 mph - N/A   Clear
9:53 PM 62.6 °F 37.4 °F 39% 29.91 in 10.0 mi North 5.8 mph - N/A   Clear
10:13 PM 62.6 °F 37.4 °F 39% 29.92 in 10.0 mi North 4.6 mph - N/A   Clear
10:33 PM 60.8 °F 37.4 °F 42% 29.92 in 10.0 mi North 3.5 mph - N/A   Clear
10:53 PM 59.0 °F 39.2 °F 48% 29.93 in 10.0 mi NNW 3.5 mph - N/A   Clear
11:13 PM 59.0 °F 39.2 °F 48% 29.93 in 10.0 mi NNW 4.6 mph - N/A   Clear
11:33 PM 60.8 °F 39.2 °F 45% 29.95 in 10.0 mi NNW 5.8 mph - N/A   Clear
11:53 PM 59.0 °F 39.2 °F 48% 29.95 in 10.0 mi NNW 6.9 mph - N/A   Clear